Lapse_Rate
6.0 5.3 6.4 6.8 6.2 6.1 5.9 5.6 5.7 6.0 6.0 5.8 5.8 5.8 6.1 6.1 5.7 5.9 6.0 5.9 5.6 5.6 5.5 5.4 5.4 5.1 4.8 4.9 5.4 5.6 6.0 6.0 5.9 6.0 6.2 6.7 6.8 7.2 7.4 7.1 6.1 6.1 7.1 6.8
5.3 5.5 7.0 6.1 5.7 5.6 5.7 5.5 5.7 5.9 6.0 5.8 5.8 5.8 6.1 6.1 6.0 6.0 6.0 5.9 5.8 5.8 5.6 5.6 5.5 5.2 5.2 5.5 5.9 6.0 6.0 6.1 6.1 6.4 6.5 6.7 7.2 7.2 7.2 7.1 7.4 7.2 7.1 7.0
5.9 6.1 6.6 6.0 6.0 5.6 5.7 5.6 5.9 5.8 5.9 6.0 5.8 5.8 6.5 6.7 6.4 6.1 6.4 6.3 6.1 5.9 5.6 5.6 5.5 5.3 5.6 6.2 6.3 6.2 6.0 6.1 6.3 6.5 6.6 6.5 6.8 7.0 7.0 7.1 7.2 7.1 7.0 7.0
5.2 6.2 6.2 6.1 6.0 6.1 5.9 6.2 5.9 5.9 5.8 5.6 5.7 4.8 6.0 6.7 6.3 6.5 6.3 6.3 6.3 6.0 5.8 5.7 5.5 5.6 6.0 6.1 6.2 6.1 6.3 6.2 6.4 6.7 6.4 6.3 6.5 6.8 6.8 6.9 6.9 7.0 7.0 6.8
5.6 6.0 6.7 6.3 6.6 6.5 6.3 6.3 6.1 6.0 5.8 5.5 5.4 5.4 6.0 6.7 6.6 6.5 6.6 6.2 6.0 6.0 5.8 5.7 5.8 5.8 5.8 6.2 6.3 6.1 6.3 6.3 6.5 6.7 6.6 6.3 6.5 6.6 6.7 6.8 7.0 7.0 7.0 6.8
5.6 5.8 6.0 6.0 6.2 6.3 6.4 6.2 6.2 6.1 5.8 4.7 5.7 5.5 6.1 6.6 6.9 6.8 6.3 6.1 5.8 5.9 6.1 6.3 5.9 5.5 5.8 6.0 6.1 6.1 6.3 6.5 6.5 6.5 6.5 6.3 6.1 6.3 6.6 6.6 6.7 6.7 6.5 6.2
5.8 5.7 6.1 6.2 6.2 6.1 6.4 6.4 6.0 5.4 4.2 4.0 5.4 5.1 6.7 6.6 6.5 6.7 6.7 6.4 6.1 6.1 6.3 6.3 5.5 5.6 5.6 5.8 6.0 5.9 6.1 6.5 6.5 6.4 6.4 6.4 6.4 6.4 6.4 6.3 6.4 6.4 6.4 6.1
5.9 5.8 6.2 6.4 6.4 6.5 6.7 6.7 6.4 4.6 3.6 4.0 5.8 5.3 6.6 7.2 7.0 6.6 6.3 6.0 5.9 6.0 6.2 5.9 5.5 5.7 5.5 5.7 5.9 6.0 6.0 6.2 6.4 6.3 6.3 6.5 6.4 6.3 6.2 6.0 5.9 6.1 6.2 6.3
7.0 6.4 6.7 6.9 7.0 6.9 6.5 6.5 6.8 6.8 5.8 4.7 5.9 6.2 6.9 7.2 7.0 6.6 6.6 6.1 6.1 6.0 6.0 5.8 5.8 5.6 5.5 5.7 5.8 6.0 6.2 6.0 6.1 6.3 6.5 6.6 6.3 6.1 6.2 6.0 6.0 5.7 5.8 5.9
7.3 6.9 7.0 7.1 6.7 6.6 6.5 6.7 6.3 6.3 5.0 4.8 5.2 5.7 6.9 7.8 7.6 7.1 6.9 6.6 6.2 6.0 6.0 5.9 5.9 5.6 5.5 5.7 5.8 6.0 6.2 6.3 6.4 6.5 6.6 6.6 6.4 6.4 6.0 5.7 5.3 5.4 5.7 5.8
7.2 7.1 6.6 7.0 6.7 6.7 6.5 6.6 6.6 6.4 6.3 4.7 4.9 6.2 7.3 7.4 7.4 7.3 6.9 6.7 6.0 6.1 6.1 6.0 5.9 5.7 5.5 5.7 5.8 6.0 6.3 6.4 6.4 6.5 6.7 6.8 6.7 6.0 6.0 5.5 5.2 5.3 5.9 6.2
7.0 6.8 6.5 6.9 6.9 7.1 7.1 7.1 7.2 6.7 6.0 6.7 6.3 6.3 7.3 7.1 7.2 7.3 7.0 6.4 6.3 6.1 6.1 6.0 5.8 5.9 5.5 5.7 5.8 5.8 6.3 6.5 6.6 6.5 6.5 6.4 6.4 5.9 5.5 5.4 5.4 5.3 5.2 5.1
7.4 6.6 6.5 7.1 7.8 7.3 7.1 6.9 7.1 7.0 6.8 6.5 5.8 6.1 7.3 7.4 7.3 7.4 7.2 6.6 6.6 6.4 6.2 6.1 5.9 6.0 5.8 5.7 5.9 5.8 6.0 6.1 6.3 6.3 6.2 6.1 6.1 6.1 6.0 5.3 5.2 5.0 5.1 5.1
7.6 7.0 6.3 6.3 7.1 6.5 7.1 6.9 6.8 6.9 6.2 6.3 6.3 6.6 7.0 7.2 7.5 7.5 7.2 6.9 6.6 6.6 6.3 6.2 6.0 6.0 6.0 5.9 5.9 5.9 5.9 6.0 6.1 6.2 6.2 6.1 5.9 5.9 6.2 5.8 5.5 5.3 5.3 5.3
7.1 6.9 5.7 5.8 5.9 6.9 6.8 6.8 7.4 7.2 6.7 6.4 6.4 6.6 7.3 7.0 7.6 7.4 6.7 6.8 7.0 6.8 6.7 6.4 6.1 6.1 6.0 6.0 6.0 6.0 5.8 5.8 5.9 6.0 6.1 6.1 6.0 5.7 5.6 5.7 6.0 5.7 5.5 5.4
6.8 6.8 6.4 5.7 5.7 6.4 6.7 7.3 7.7 7.3 7.2 6.7 6.7 6.6 6.9 7.1 6.9 6.9 6.9 7.1 7.0 6.9 6.8 6.4 6.2 6.1 6.1 6.0 6.1 5.9 5.8 5.7 5.7 5.7 5.8 5.6 5.6 5.6 5.5 5.7 5.8 5.7 5.9 5.9
6.7 6.6 6.6 6.2 6.2 5.7 5.9 7.4 7.4 7.3 7.0 6.7 6.4 6.7 7.4 7.1 6.9 6.9 7.3 7.2 7.3 7.0 6.8 6.7 6.3 6.2 6.1 6.1 6.1 6.0 5.7 5.5 5.7 5.7 5.5 5.4 5.5 5.6 5.6 5.5 5.4 5.4 5.6 5.6
6.9 6.6 6.3 5.8 6.1 6.0 5.9 6.7 7.3 7.2 7.4 6.9 6.5 6.7 7.3 7.3 7.3 6.9 7.4 7.1 7.2 7.0 6.9 6.9 6.5 6.3 6.2 6.1 6.0 6.0 5.8 5.5 5.5 5.5 5.6 5.6 5.7 5.6 5.6 5.7 5.8 5.8 5.8 5.8
7.7 7.3 6.5 6.3 6.6 6.7 6.5 6.7 7.4 7.5 7.4 7.7 7.2 7.1 7.2 7.6 7.3 6.9 7.3 7.3 7.0 7.0 6.7 6.5 6.4 6.2 6.2 6.3 6.0 6.0 5.8 5.6 5.6 5.7 5.7 5.8 5.8 5.9 5.9 5.8 5.8 5.8 5.8 5.8
8.2 7.9 7.2 6.9 6.1 6.0 6.3 7.4 7.1 7.5 6.8 7.3 7.2 7.2 7.4 7.8 7.3 6.9 7.4 7.3 7.2 7.1 6.9 6.7 6.5 6.2 6.2 6.4 6.1 6.0 5.9 5.8 5.8 6.0 5.9 5.9 5.9 5.9 5.8 5.9 5.9 5.9 5.9 5.9
8.0 7.4 7.3 6.9 5.9 5.7 6.7 7.5 7.6 7.4 7.0 7.8 8.1 8.0 8.2 7.6 7.4 7.5 7.7 7.5 7.3 7.1 6.9 6.8 6.6 6.4 6.2 6.4 6.3 6.1 6.0 6.0 5.9 6.0 6.1 6.0 6.0 5.9 5.8 5.8 5.9 5.8 5.7 5.7
7.8 7.8 7.4 7.1 6.3 5.8 6.4 7.5 7.4 7.8 7.8 8.1 7.9 7.8 7.8 7.4 7.5 7.9 7.7 7.6 7.4 7.5 6.9 6.8 6.7 6.6 6.5 6.5 6.4 6.2 5.9 5.9 5.9 5.9 6.0 6.1 6.0 6.0 5.9 5.7 5.7 5.7 5.6 5.8
7.7 8.0 7.8 7.5 7.1 6.6 6.4 7.1 7.6 7.5 7.2 7.5 8.0 7.8 7.4 7.1 7.1 7.2 7.3 7.2 7.4 7.6 7.2 7.0 6.8 6.7 6.6 6.5 6.4 6.2 6.1 6.1 5.9 5.9 5.8 6.0 6.1 6.0 5.9 5.7 5.5 5.5 5.4 5.6
7.5 7.9 7.4 7.6 7.1 7.2 6.9 6.7 6.9 6.3 7.6 7.1 6.7 7.2 7.4 7.0 7.1 7.1 7.6 7.5 7.3 7.3 7.1 6.9 6.7 6.7 6.7 6.6 6.5 6.2 6.2 6.1 6.0 6.0 5.9 6.1 6.2 6.1 6.0 5.8 5.7 5.6 5.5 5.4
7.4 7.4 7.7 7.4 7.7 7.7 7.4 6.7 6.7 6.8 6.4 7.8 6.5 6.5 7.1 7.2 7.3 6.9 7.4 7.6 7.3 7.2 7.1 6.9 6.8 7.0 7.0 6.7 6.6 6.6 6.6 6.4 6.3 6.1 6.0 6.3 6.4 6.3 6.1 6.0 5.8 5.7 5.6 5.5
7.7 7.7 7.6 8.0 8.2 7.3 7.1 6.8 5.8 6.4 5.9 7.5 6.4 6.6 7.0 7.0 7.1 6.7 7.3 7.6 7.2 7.1 7.1 6.8 6.7 6.8 6.9 6.8 6.8 6.9 6.9 6.8 6.6 6.5 6.2 6.3 6.4 6.3 6.1 6.0 5.9 5.9 5.9 5.8
Wind_Speed
3 3 9 12 8 5 1 3 6 6 9 6 8 10 13 10 6 9 9 7 8 8 5 4 3 4 5 3 4 5 5 7 5 2 3 2 4 3 5 6 15 13 13 15
1 11 11 7 6 8 8 8 9 9 6 5 7 11 11 9 9 10 14 11 11 7 5 4 4 3 3 1 4 5 4 4 4 2 2 3 4 3 3 3 8 13 13 15
11 7 5 11 9 8 9 9 6 8 4 4 4 10 8 4 2 2 4 13 9 10 9 5 4 5 7 6 5 6 4 6 5 5 1 2 3 3 3 2 3 5 12 15
9 17 16 7 8 10 13 8 10 5 2 3 3 6 7 7 5 4 8 9 9 9 6 6 5 5 5 5 6 6 4 4 5 5 3 5 4 4 3 3 3 3 6 10
9 6 9 14 20 8 9 8 6 4 2 2 3 2 6 1 5 7 7 7 8 8 8 7 6 5 5 4 5 5 4 4 1 5 4 3 3 2 2 2 3 2 1 5
14 6 4 7 7 13 4 4 6 5 2 4 8 8 6 4 7 6 5 7 9 8 8 7 6 6 4 4 4 5 6 5 5 5 5 5 4 3 3 1 2 2 1 0
10 16 8 5 5 2 4 6 2 3 2 6 3 3 10 6 6 16 18 13 10 8 8 7 7 5 3 4 5 4 5 6 6 8 6 6 6 4 2 2 2 3 2 1
12 6 16 9 18 7 7 9 6 6 4 5 1 6 6 4 5 7 12 14 11 8 7 7 7 5 4 3 3 3 4 4 6 6 6 5 5 2 1 2 2 3 3 2
7 7 5 5 10 13 6 5 7 4 1 1 5 7 8 5 6 13 15 14 12 9 8 8 7 6 4 3 3 3 4 4 5 5 5 5 5 4 3 3 2 3 4 3
6 11 10 6 5 4 11 8 3 2 3 5 5 5 8 5 6 9 14 14 12 9 8 7 7 6 4 3 3 3 4 5 5 4 4 4 4 3 4 4 4 6 6 5
2 12 9 4 8 10 3 5 3 5 6 5 2 6 6 12 13 17 13 13 14 12 9 9 7 6 5 4 3 3 4 5 5 5 5 5 4 5 5 5 4 5 7 6
5 4 10 21 4 6 17 15 8 5 5 5 3 6 3 8 14 13 14 12 12 12 10 8 8 7 5 5 4 3 4 5 5 5 6 6 6 6 5 5 5 6 8 6
7 3 3 1 4 4 4 4 7 5 3 7 5 5 4 5 9 11 14 13 13 12 11 10 8 8 6 5 5 4 5 5 6 5 6 6 6 6 6 6 7 7 6 7
6 2 3 4 4 10 5 9 11 11 10 7 9 5 3 2 7 8 12 13 13 13 14 11 9 8 7 6 6 5 6 5 5 6 6 8 7 7 6 7 9 9 8 7
5 8 8 9 13 15 18 20 18 15 17 14 17 15 14 8 10 14 12 13 15 14 14 13 12 10 9 7 7 6 6 6 6 8 7 7 7 7 7 9 8 9 9 8
4 3 7 17 13 15 19 19 20 23 20 21 14 8 5 10 4 9 15 18 17 18 16 15 14 12 11 10 9 8 7 7 7 8 7 8 7 7 8 7 8 9 8 8
4 4 3 16 6 12 9 20 17 11 10 10 14 14 10 4 9 15 16 20 21 19 18 18 16 14 12 11 10 10 9 9 7 8 7 7 8 8 7 8 9 8 7 7
6 3 2 3 1 10 9 16 12 12 11 10 8 8 10 14 16 14 17 22 19 19 19 17 15 14 13 12 11 10 10 10 9 8 8 7 8 8 7 8 8 8 6 7
9 5 2 2 7 13 14 8 6 5 18 12 13 16 17 8 3 5 16 19 23 24 19 17 16 16 14 14 12 11 10 9 10 10 9 9 10 8 9 9 7 6 7 5
8 6 5 2 5 8 3 3 5 5 13 7 8 11 12 7 6 8 13 15 15 17 17 17 17 13 15 14 14 13 11 10 10 10 10 9 9 9 8 9 7 3 5 5
5 5 12 10 7 8 6 3 8 3 2 2 4 9 10 11 12 9 15 16 19 19 20 18 18 17 16 14 15 14 13 12 11 9 9 9 7 9 8 7 4 6 6 6
6 5 5 7 10 18 7 2 6 4 8 10 8 6 11 8 8 6 15 19 21 22 20 20 18 17 15 15 15 14 14 12 11 11 10 9 8 8 7 8 5 6 7 7
4 7 4 6 4 5 13 14 16 16 16 11 12 15 8 12 8 9 12 18 21 24 21 19 19 18 16 16 15 15 12 12 12 11 9 9 8 8 8 9 7 5 6 5
5 5 6 4 10 16 22 23 20 13 15 17 14 11 18 18 10 8 11 16 17 19 20 19 19 19 18 17 15 14 13 14 14 12 10 8 9 8 7 7 7 7 6 6
5 1 5 6 11 9 15 18 20 20 18 20 12 11 18 16 13 8 12 16 18 19 19 20 20 18 19 18 15 14 15 16 14 12 11 10 8 9 8 7 8 8 5 9
10 16 8 10 17 11 15 16 12 14 9 6 10 12 19 10 13 8 12 16 18 19 18 18 18 18 18 17 16 15 16 17 15 13 10 9 7 6 6 6 3 7 11 14
Wind_Direction
221 173 213 210 203 220 259 254 269 268 262 205 230 243 252 254 257 251 235 167 158 153 157 142 115 91 36 342 322 312 281 202 200 171 152 174 185 160 180 188 186 194 178 172
216 237 229 212 222 236 256 263 271 273 242 193 255 252 248 236 235 221 217 159 161 148 145 149 145 149 171 6 342 318 267 248 233 191 187 160 171 156 123 159 183 187 181 187
201 241 183 203 236 233 241 234 243 239 289 308 296 285 251 240 200 69 117 153 145 155 156 146 97 45 27 5 326 304 272 242 233 224 119 85 81 73 115 163 170 182 183 190
227 237 264 226 240 220 254 212 235 256 59 252 48 285 255 246 175 128 129 139 148 151 137 112 86 49 29 350 337 345 318 266 204 188 199 158 174 175 174 157 169 162 205 192
218 196 217 232 239 197 232 208 202 207 224 348 197 233 271 93 195 181 185 166 161 152 140 134 107 87 41 357 351 336 31 41 54 155 166 149 127 84 87 116 139 155 170 208
221 227 179 214 244 212 193 109 41 40 72 297 214 174 276 218 200 162 171 181 165 158 149 127 116 91 53 11 10 348 26 30 84 106 101 111 115 100 68 111 172 152 48 1
246 242 252 231 262 111 107 96 325 328 357 229 160 162 249 260 219 181 176 175 173 160 146 139 128 115 98 41 23 16 19 45 50 98 93 103 120 112 133 204 186 156 143 212
220 286 221 221 213 184 184 155 163 215 206 252 314 231 251 270 277 159 161 151 156 156 145 132 131 120 97 76 49 35 48 56 67 87 97 105 95 107 168 215 186 179 161 173
189 246 260 211 198 177 181 188 181 105 351 28 236 286 311 67 83 134 146 155 162 164 151 140 138 122 122 99 73 38 55 50 45 82 98 94 80 81 86 49 67 134 118 121
216 269 247 277 161 180 179 160 98 38 211 237 273 263 245 226 180 162 162 166 164 158 149 148 147 137 124 113 101 68 66 74 70 75 84 94 106 108 99 101 63 138 127 126
311 233 235 160 199 186 147 175 143 145 156 197 272 257 216 200 185 181 179 170 166 165 163 157 151 138 131 128 124 97 75 81 67 64 58 68 69 63 65 62 67 90 106 118
25 301 237 240 229 217 213 199 156 147 218 214 181 269 327 206 192 173 169 172 166 166 163 153 146 140 146 147 131 114 100 92 85 81 83 79 79 77 79 62 71 82 91 93
359 355 326 96 320 249 215 193 205 134 108 195 173 262 2 103 149 169 166 170 169 159 159 154 148 152 159 152 140 126 112 106 104 105 102 92 80 83 80 79 75 69 84 98
87 285 288 273 303 335 260 214 201 197 227 217 227 271 312 151 179 181 176 168 170 165 163 163 158 157 160 155 145 136 126 118 112 101 98 95 93 89 87 85 84 81 76 80
172 240 268 289 302 301 282 272 208 208 218 213 243 236 245 222 198 196 178 166 168 172 175 174 166 164 161 158 148 144 141 135 129 118 115 106 99 96 96 91 80 87 87 83
184 273 269 282 305 313 297 290 230 222 218 232 235 241 263 243 136 159 182 175 180 179 181 178 171 167 165 168 159 150 150 148 144 133 124 115 109 101 92 87 86 84 80 81
165 175 222 264 265 332 279 255 241 220 224 224 225 246 252 238 200 198 189 186 185 182 178 178 176 174 167 169 164 159 153 149 145 135 132 128 122 112 107 108 98 87 84 79
166 181 181 291 345 257 251 282 273 245 242 227 248 252 250 236 232 204 196 185 187 181 177 178 173 174 166 164 165 155 149 151 150 146 145 137 124 117 116 99 97 92 88 98
185 164 251 205 230 264 289 269 269 221 261 233 231 247 248 233 110 235 194 191 187 183 177 176 173 173 160 163 161 156 155 157 157 152 151 144 140 127 123 120 121 118 111 91
167 190 169 271 234 241 182 283 352 306 276 224 203 223 235 154 203 231 182 189 184 175 169 168 168 164 163 163 160 157 163 165 162 157 154 141 136 134 134 134 129 99 105 113
135 187 212 222 246 287 287 221 2 253 247 300 282 263 248 209 225 215 178 182 175 170 167 162 162 165 168 163 161 164 165 175 164 151 141 138 139 138 139 127 120 126 115 101
172 166 200 223 229 240 346 322 184 261 311 351 340 326 339 320 289 208 186 175 164 164 162 163 163 167 165 167 166 166 172 165 151 147 146 145 144 146 139 132 124 119 116 113
227 188 206 196 226 261 296 277 282 297 306 306 312 310 325 318 298 216 186 174 169 163 164 165 164 161 165 171 176 170 165 150 149 147 145 150 144 139 145 140 132 120 114 116
237 224 244 266 250 250 257 275 280 270 282 285 290 292 308 297 285 225 193 172 167 163 163 163 160 164 167 174 177 174 156 155 153 153 150 151 151 145 143 145 148 145 146 140
209 246 240 269 282 281 267 260 271 280 270 270 272 292 303 291 281 217 191 176 169 165 162 164 164 168 168 170 172 160 159 157 159 156 157 160 164 163 157 164 165 163 170 166
234 251 247 255 260 255 278 288 297 290 281 279 273 287 284 274 275 211 192 176 166 163 161 163 164 162 161 165 167 163 161 162 157 158 162 165 161 161 161 154 111 173 165 176